Find Kosmos-651

NORAD ID: 7291 Int'l Des: 1974-029 Owner: VMF Country: SU operational
LEOCIRCULAR

当前视图

正在加载3D地球...

关于 Kosmos-651

正在加载描述...

即将过境

Passes for default location (London). Set your location on the main map for personalized predictions.

高度历史

Loading altitude history...

两行轨道根数

1 7291U 74029A 26150.51673787 -.00000045 00000-0 35144-4 0 9990
2 7291 64.9724 0.2958 0024083 48.8259 311.4878 13.93093349648251
Epoch: May 30, 2026 • Age: 6 hours

当前状态

高度 915.4 km
速度 7.41 km/s
星下点 64.91°N, 61.54°W
类型 other

Most Searched